FW1340 Weather Reports


time (UTC)temp
C
wind
direction
speed
KPH
gust
KPH
rain 1hr
cm
rain 24hr
cm
rain mn
cm
humidity
%
barometer
mb
20260509053040 17 271 0.0 0.0 0.00 0.00 0.00 75 1014.5
20260509051533 17 265 0.0 0.0 0.00 0.00 0.00 74 1014.4
20260509050047 17 242 0.0 0.0 0.00 0.00 0.00 73 1014.3
20260509044534 18 281 0.0 0.0 0.00 0.00 0.00 74 1014.2
20260509043039 18 245 0.0 0.0 0.00 0.00 0.00 72 1014.1
20260509041530 18 246 0.0 0.0 0.00 0.00 0.00 70 1014.0
20260509040029 19 259 0.0 0.0 0.00 0.00 0.00 69 1013.9
20260509034528 20 252 0.0 0.0 0.00 0.00 0.00 68 1013.9
20260509033036 20 265 0.0 0.0 0.00 0.00 0.00 68 1013.8
20260509031531 21 223 0.0 0.0 0.00 0.00 0.00 67 1013.7
20260509030029 21 259 0.0 0.0 0.00 0.00 0.00 66 1013.6
20260509024529 22 263 0.0 0.0 0.00 0.00 0.00 64 1013.5
20260509023026 23 238 0.0 0.0 0.00 0.00 0.00 62 1013.4
20260509021525 24 269 0.0 0.0 0.00 0.00 0.00 58 1013.5
20260509020023 25 263 0.0 0.0 0.00 0.00 0.00 55 1013.4
20260509014526 26 249 0.0 0.0 0.00 0.00 0.00 55 1013.6
20260509013022 26 246 0.0 0.0 0.00 0.00 0.00 54 1013.6
20260509011522 27 256 0.0 0.0 0.00 0.00 0.00 51 1013.6
20260509010020 27 273 0.0 0.0 0.00 0.00 0.00 50 1013.6
20260509004519 28 316 0.0 0.0 0.00 0.00 0.00 50 1013.7
20260509003017 28 321 0.0 0.0 0.00 0.00 0.00 50 1013.8
20260509001515 28 234 0.0 0.0 0.00 0.00 0.00 50 1013.9
20260509000028 28 251 0.0 0.0 0.00 0.00 0.00 51 1014.0
20260508234512 27 274 0.0 0.0 0.00 0.00 0.00 52 1014.2
20260508233009 28 246 0.0 0.0 0.00 0.00 0.00 51 1014.3
20260508231507 28 238 0.0 0.0 0.00 0.00 0.00 51 1014.6
20260508230005 28 311 0.0 0.0 0.00 0.00 0.00 51 1014.7
20260508224502 27 294 0.0 0.0 0.00 0.00 0.00 52 1014.9
20260508223059 27 277 0.0 0.0 0.00 0.00 0.00 53 1015.1
20260508221609 27 252 0.0 0.0 0.00 0.00 0.00 55 1015.4
20260508220053 27 241 0.0 0.0 0.00 0.00 0.00 53 1015.6
20260508214552 27 326 0.0 0.0 0.00 0.00 0.00 54 1015.7
20260508213048 27 286 0.0 0.0 0.00 0.00 0.00 53 1015.9
20260508211549 26 256 0.0 0.0 0.00 0.00 0.00 53 1016.2
20260508210044 26 307 0.0 0.0 0.00 0.00 0.00 53 1016.4
20260508204542 25 263 0.0 0.0 0.00 0.00 0.00 55 1016.5
20260508203038 25 277 0.0 0.0 0.00 0.00 0.00 54 1016.6
20260508201540 25 252 0.0 0.0 0.00 0.00 0.00 54 1016.7
20260508200042 24 242 0.0 0.0 0.00 0.00 0.00 57 1016.8
20260508194529 24 325 0.0 0.0 0.00 0.00 0.00 58 1017.0
20260508193026 23 254 0.0 0.0 0.00 0.00 0.00 59 1017.2
20260508191524 23 214 0.0 0.0 0.00 0.00 0.00 60 1017.3
20260508190021 22 323 0.0 0.0 0.00 0.00 0.00 61 1017.4
20260508184525 22 341 0.0 0.0 0.00 0.00 0.00 62 1017.5
20260508183013 21 324 0.0 0.0 0.00 0.00 0.00 63 1017.7
20260508181510 21 264 0.0 0.0 0.00 0.00 0.00 64 1017.8
20260508180005 20 287 0.0 0.0 0.00 0.00 0.00 64 1017.7
20260508174502 20 333 0.0 0.0 0.00 0.00 0.00 66 1017.8
20260508173109 19 300 0.0 0.0 0.00 0.00 0.00 67 1017.9
20260508171558 18 290 0.0 0.0 0.00 0.00 0.00 69 1018.1
20260508170054 18 251 0.0 0.0 0.00 0.00 0.00 69 1018.0
20260508164550 17 255 0.0 0.0 0.00 0.00 0.00 73 1017.9
20260508163048 16 261 0.0 0.0 0.00 0.00 0.00 75 1018.0
20260508161542 16 246 0.0 0.0 0.00 0.00 0.00 77 1018.0
20260508160039 15 233 0.0 0.0 0.00 0.00 0.00 79 1018.1
20260508154532 15 241 0.0 0.0 0.00 0.00 0.00 82 1018.2
20260508153028 14 254 0.0 0.0 0.00 0.00 0.00 82 1018.2
20260508151523 13 271 0.0 0.0 0.00 0.00 0.00 84 1018.1
20260508150022 13 273 0.0 0.0 0.00 0.00 0.00 86 1018.2
20260508144533 12 271 0.0 0.0 0.00 0.00 0.00 89 1017.9
20260508143024 12 273 0.0 0.0 0.00 0.00 0.00 91 1017.8
20260508141515 11 271 0.0 0.0 0.00 0.00 0.00 92 1017.6
20260508140004 11 294 0.0 0.0 0.00 0.00 0.00 92 1017.5
20260508134601 11 256 0.0 0.0 0.00 0.00 0.00 92 1017.3
20260508133055 11 258 0.0 0.0 0.00 0.00 0.00 92 1017.2
20260508131557 10 255 0.0 0.0 0.00 0.00 0.00 92 1017.3
20260508130048 10 259 0.0 0.0 0.00 0.00 0.00 92 1017.3
20260508124548 10 268 0.0 0.0 0.00 0.00 0.00 92 1017.2
20260508123046 10 284 0.0 0.0 0.00 0.00 0.00 92 1017.2
20260508121547 11 275 0.0 0.0 0.00 0.00 0.00 92 1017.1
20260508120042 11 271 0.0 0.0 0.00 0.00 0.00 92 1016.9
20260508114540 11 258 0.0 0.0 0.00 0.00 0.00 91 1017.0
20260508113103 11 261 0.0 0.0 0.00 0.00 0.00 91 1016.9
20260508111537 11 275 0.0 0.0 0.00 0.00 0.00 91 1016.8
20260508110035 11 273 0.0 0.0 0.00 0.00 0.00 91 1016.8
20260508104542 11 281 0.0 0.0 0.00 0.00 0.00 90 1016.7
20260508103031 11 270 0.0 0.0 0.00 0.00 0.00 90 1016.6
20260508101536 12 261 0.0 0.0 0.00 0.00 0.00 90 1016.7
20260508100035 12 281 0.0 0.0 0.00 0.00 0.00 90 1016.7
20260508094527 12 282 0.0 0.0 0.00 0.00 0.00 90 1016.6
20260508093026 12 261 0.0 0.0 0.00 0.00 0.00 91 1016.6
20260508091527 12 268 0.0 0.0 0.00 0.00 0.00 90 1016.5
20260508090025 12 288 0.0 0.0 0.00 0.00 0.00 90 1016.5
20260508084520 12 246 0.0 0.0 0.00 0.00 0.00 90 1016.5
20260508083019 12 270 0.0 0.0 0.00 0.00 0.00 90 1016.5
20260508081518 12 263 0.0 0.0 0.00 0.00 0.00 90 1016.4
20260508080020 13 290 0.0 0.0 0.00 0.00 0.00 89 1016.5
20260508074517 13 273 0.0 0.0 0.00 0.00 0.00 88 1016.4
20260508073010 13 269 0.0 0.0 0.00 0.00 0.00 87 1016.4
20260508071509 13 281 0.0 0.0 0.00 0.00 0.00 86 1016.3
20260508070006 14 287 0.0 0.0 0.00 0.00 0.00 85 1016.2
20260508064525 14 285 0.0 0.0 0.00 0.00 0.00 84 1016.1
20260508063005 15 275 0.0 0.0 0.00 0.00 0.00 84 1015.9
20260508061506 15 276 0.0 0.0 0.00 0.00 0.00 83 1015.8
20260508060004 15 257 0.0 0.0 0.00 0.00 0.00 83 1015.8
20260508054506 15 269 0.0 0.0 0.00 0.00 0.00 82 1015.9